Regional Weather Roundup
Issued by NWS

Home | Current Version | Previous Version | Text Only | Print | Product List | Glossary Off
Versions: 1 2 3 4 5 6 7 8 9 10 11 12 13 14 15 16 17 18 19 20 21 22 23 24 25 26 27 28 29 30 31 32 33 34 35 36 37 38 39 40 41 42 43 44 45 46 47 48 49 50

000
ASUS43 KIND 230459
RWRIN

WEATHER ROUNDUP FOR INDIANA
NATIONAL WEATHER SERVICE INDIANAPOLIS IN
100 AM EDT SAT MAY 23 2015

NOTE: "FAIR" INDICATES FEW OR NO CLOUDS BELOW 12,000 FEET WITH NO
SIGNIFICANT WEATHER AND/OR OBSTRUCTIONS TO VISIBILITY.

* - STATION DOES NOT REPORT WEATHER SUCH AS PRECIPITATION OR FOG.

+ - STATION NOT QUALITY CONTROLLED BY THE NATIONAL WEATHER SERVICE.
    USE DATA WITH CAUTION...ESPECIALLY DEWPOINT AND RELATIVE
    HUMIDITY OBSERVATIONS.

INZ001>003-010>013-019-020-230600-
NORTHWEST INDIANA

CITY           SKY/WX    TMP DP  RH WIND       PRES   REMARKS
MONTICELLO +   PTCLDY    57  37  46 E6        30.28S
RENSSELAER +   PTCLDY    54  37  54 E6        30.29S

$$

LMZ046-743>745-230600-
SOUTHERN LAKE MICHIGAN

STATION/POSITION TIME  TEMP    WIND        PRES    WAVE
                       AIR SEA DIR/SP/G            HT
                 (UTC) (F)     (DEG/KT/KT) (MB)    (FT)
BURNS HARBOR     0400   56      80/  6/  8 1026.4S
MICHIGAN CITY    0400   54      50/  4/  5   N/A
5NW MICH CITY    0400   53 51  150/  4/  4   N/A     1

$$

INZ004-005-014>016-021>024-230600-
NORTH CENTRAL INDIANA

CITY           SKY/WX    TMP DP  RH WIND       PRES   REMARKS
GOSHEN         CLOUDY    49  37  63 NE5       30.30S
SOUTH BEND     CLOUDY    49  37  63 CALM      30.31S
WARSAW +       MOCLDY    50  37  62 CALM      30.31S

$$

INZ006>009-017-018-025>027-230600-
NORTHEAST INDIANA

CITY           SKY/WX    TMP DP  RH WIND       PRES   REMARKS
ANGOLA *+      CLEAR     45  37  76 CALM      30.31F
FORT WAYNE     MOCLDY    53  37  54 N5        30.32R

$$

INZ028-029-035-036-043>045-051>053-230600-
WEST CENTRAL INDIANA

CITY           SKY/WX    TMP DP  RH WIND       PRES   REMARKS
CRAWFORDSVL +  PTCLDY    56  33  42 E6        30.28F
GREENCASTLE +  MOCLDY    59  43  55 N3        30.29S
LAFAYETTE      PTCLDY    54  38  54 E8        30.28S
TERRE HAUTE    CLOUDY    61  56  83 CALM      30.27S

$$

INZ030>032-037>040-046>048-054>057-064-065-230600-
CENTRAL INDIANA

CITY           SKY/WX    TMP DP  RH WIND       PRES   REMARKS
GREENWOOD *+   PTCLDY    55  45  67 CALM      30.30S
INDIANAPOLIS   PTCLDY    60  43  53 NE8       30.27F
-EAGLE CREEK   CLEAR     55  44  66 NE3       30.29S
KOKOMO *+      MOCLDY    54  39  58 E6        30.30S
MT COMFORT *+  PTCLDY    54  37  54 CALM      30.30S
SHELBYVILLE    MOCLDY    56  47  71 NE5       30.29R

$$

INZ033-034-041-042-049-050-058-059-230600-
EAST CENTRAL INDIANA

CITY           SKY/WX    TMP DP  RH WIND       PRES   REMARKS
MUNCIE         MOCLDY    56  41  57 NE5       30.31R

$$

INZ060-061-067>069-081>083-085>088-230600-
SOUTHWEST INDIANA

CITY           SKY/WX    TMP DP  RH WIND       PRES   REMARKS
EVANSVILLE     PTCLDY    62  54  74 CALM      30.29S
HUNTINGBURG *+ MOCLDY    57  50  77 CALM      30.29S

$$

INZ062-063-066-070>080-084-089>092-230600-
SOUTH CENTRAL AND SOUTHEAST INDIANA

CITY           SKY/WX    TMP DP  RH WIND       PRES   REMARKS
BLOOMINGTON    MOCLDY    56  51  84 CALM      30.29R
MADISON *+     PTCLDY    52  46  82 CALM      30.32R
SEYMOUR +      PTCLDY    54  46  76 CALM      30.29S

$$




USA.gov is the U.S. government's official web portal to all federal, state and local government web resources and services.